Vorticity
nan nan nan nan nan nan nan nan nan nan nan nan nan nan nan nan nan nan nan nan nan nan nan nan nan nan nan nan nan nan nan nan nan nan nan nan nan nan nan nan nan nan nan nan nan nan nan nan nan
nan 4 6 8 5 4 8 8 5 6 2 4 8 6 8 6 5 5 10 7 3 8 8 8 4 2 6 10 5 5 8 4 7 5 5 5 5 5 5 5 4 5 6 5 4 3 1 -2 nan
nan 5 8 8 4 4 7 5 5 7 5 6 8 9 6 3 6 11 11 9 5 1 7 13 7 3 4 2 9 4 6 5 7 6 5 5 5 4 5 5 6 6 6 5 3 2 2 3 nan
nan 4 8 8 4 6 5 3 9 6 9 6 7 7 8 10 7 3 1 12 8 5 11 12 4 6 3 -1 2 4 6 6 6 6 6 5 5 4 4 6 6 5 5 4 3 4 8 13 nan
nan 8 7 5 7 8 6 11 12 5 6 8 8 7 4 8 8 10 4 7 7 7 7 8 9 5 -1 5 3 7 0 9 6 5 6 6 5 4 4 6 5 5 4 4 3 4 12 14 nan
nan 8 4 7 7 5 8 16 6 8 5 5 9 8 5 7 9 4 12 13 11 9 6 9 12 8 8 6 4 5 4 7 7 6 6 6 4 4 5 6 5 5 4 4 4 7 9 6 nan
nan 7 6 5 6 7 11 9 8 6 4 9 9 4 7 8 8 7 13 9 5 9 9 5 8 15 15 5 5 7 9 2 7 6 7 6 5 6 5 4 5 5 5 5 5 6 9 8 nan
nan 6 8 7 8 4 8 5 9 8 6 8 7 5 8 11 9 6 6 7 4 5 6 6 10 9 8 12 8 5 8 4 7 6 6 6 5 5 5 4 5 5 5 5 5 8 10 7 nan
nan 6 7 8 6 5 5 8 5 7 10 6 4 5 14 12 6 4 2 4 6 9 8 5 1 9 17 13 10 7 3 6 3 4 5 4 3 3 5 6 6 5 4 5 6 8 8 5 nan
nan 5 8 6 2 5 9 11 5 6 5 5 8 9 7 7 5 4 6 5 7 7 7 11 12 8 12 7 6 3 4 5 4 6 3 3 5 4 6 6 4 2 3 1 2 2 1 2 nan
nan 3 4 3 10 11 9 11 9 6 7 10 6 10 10 6 6 6 8 6 7 6 7 8 5 35 31 2 2 6 5 4 9 9 7 4 4 6 5 5 3 4 1 2 1 1 2 6 nan
nan 7 6 7 6 9 15 7 7 5 10 10 10 12 9 8 7 9 10 9 8 5 5 10 7 17 24 22 11 8 5 8 8 8 7 5 6 7 6 6 7 5 5 6 5 7 8 7 nan
nan 5 6 8 7 9 9 6 10 6 9 6 8 9 9 8 7 7 8 9 9 8 7 8 13 8 2 8 12 7 9 9 8 7 6 7 7 6 5 7 8 7 7 6 8 6 7 6 nan
nan 7 6 8 12 11 7 8 7 11 8 6 5 7 7 7 7 9 8 7 7 8 8 7 11 11 8 6 3 5 8 9 8 7 8 8 8 7 6 6 6 7 7 9 9 7 6 6 nan
nan 7 11 13 14 10 9 5 9 12 9 5 5 6 7 8 8 10 10 9 9 9 8 8 7 9 8 7 5 7 9 9 7 7 8 9 9 9 9 5 8 7 7 7 5 7 8 8 nan
nan 8 8 9 10 12 8 7 17 11 7 3 7 7 6 7 8 8 10 9 8 8 10 9 8 9 9 5 5 8 8 9 9 8 7 7 9 10 7 7 9 7 8 7 7 6 6 7 nan
nan 8 3 8 11 10 3 6 13 10 8 7 6 5 5 7 8 9 8 10 8 8 8 9 10 10 5 4 7 9 9 9 8 9 8 8 7 9 7 6 9 8 7 8 6 7 8 7 nan
nan 6 7 5 1 9 2 10 4 10 7 9 6 4 6 9 8 8 8 8 9 7 7 9 10 7 5 5 5 7 8 7 9 8 9 8 8 6 7 8 8 7 7 7 8 8 7 9 nan
nan 6 3 4 5 11 6 10 9 12 5 10 7 6 8 9 9 8 7 7 6 8 8 7 7 6 6 5 7 6 6 6 6 10 9 6 7 8 6 7 8 8 9 8 5 7 8 8 nan
nan 5 3 11 13 7 14 8 15 13 10 13 11 7 7 7 8 8 7 6 6 8 7 6 7 5 4 6 7 7 9 7 5 8 8 9 7 7 8 8 8 7 7 9 7 6 6 10 nan
nan 7 8 3 11 9 11 10 12 10 11 10 10 10 9 8 8 7 5 5 7 8 8 6 6 6 7 6 5 5 5 7 9 8 9 10 8 7 8 6 8 8 8 9 6 7 7 7 nan
nan 10 4 3 13 14 8 9 9 13 9 6 7 8 7 6 7 9 8 6 7 6 7 9 8 5 5 9 9 8 7 6 6 6 8 10 9 6 6 9 8 7 8 9 8 7 6 8 nan
nan 9 12 12 10 9 6 12 10 10 11 13 10 7 8 8 8 8 9 10 9 7 6 7 9 6 5 6 7 8 6 7 9 8 9 8 10 10 9 10 8 7 7 9 8 7 6 4 nan
nan 8 11 15 14 7 11 6 8 8 8 9 14 12 9 9 6 8 8 8 10 9 8 9 8 6 5 5 6 6 6 5 5 5 7 8 9 11 11 10 9 8 8 9 9 8 8 6 nan
nan 7 7 8 12 10 9 6 8 8 10 12 13 10 11 9 9 8 8 6 8 9 7 8 8 7 6 6 6 5 5 7 7 6 6 7 7 8 10 9 8 9 10 9 10 10 10 11 nan
nan 5 6 9 8 11 8 7 11 8 7 16 15 15 11 9 9 8 8 7 7 8 7 7 7 8 8 8 7 6 5 4 8 8 7 7 7 8 10 9 8 9 9 9 8 9 13 11 nan
nan 11 8 4 7 12 6 5 11 11 11 15 17 15 11 9 8 9 8 7 8 9 8 7 6 7 8 8 8 9 9 6 5 6 5 7 8 9 11 11 9 9 10 11 8 8 11 9 nan
nan 1 5 13 13 2 9 11 8 8 13 12 14 10 10 9 8 9 10 8 6 9 9 10 9 7 7 8 8 8 8 8 7 8 9 7 8 10 12 11 10 9 10 11 8 8 10 8 nan
nan 4 4 11 10 8 8 11 13 9 7 8 10 14 14 11 10 9 8 9 8 8 10 9 10 8 7 8 8 7 8 9 9 8 9 11 10 12 10 10 10 10 8 9 9 10 9 7 nan
nan nan nan nan nan nan nan nan nan nan nan nan nan nan nan nan nan nan nan nan nan nan nan nan nan nan nan nan nan nan nan nan nan nan nan nan nan nan nan nan nan nan nan nan nan nan nan nan nan
CAPE
0 0 0 0 0 0 0 0 0 0 2 0 0 3 114 266 502 219 175 399 783 1546 1661 1721 1672 1851 1852 1766 1526 1617 1738 1798 1635 1422 1370 1306 1249 1015 681 402 146 315 309 11 22 26 8 5 15
0 0 0 0 0 0 0 0 0 0 0 0 0 1 430 322 335 353 220 323 727 841 1775 1642 1641 1840 1878 1693 1565 1593 1739 1700 1619 1515 1413 1380 1246 1025 691 336 204 434 471 151 56 75 119 72 10
0 0 0 0 0 0 0 0 0 0 0 0 0 8 306 285 703 850 369 406 593 560 689 1751 1501 1669 1784 1689 1662 1545 1496 1426 1485 1399 1467 1402 1352 1112 756 368 297 545 581 183 24 1 0 0 0
0 0 0 0 0 0 0 0 0 0 0 0 0 0 0 34 656 411 234 294 402 412 343 1350 1255 990 947 1073 1321 1570 1313 1222 1283 1302 1497 1497 1493 1191 768 423 327 552 431 12 0 0 0 0 0
0 0 0 0 0 0 0 0 0 0 0 0 0 1 1 196 202 820 266 264 205 219 167 407 848 877 875 1060 1233 1115 1225 1098 1166 1363 1426 1481 1401 1045 674 432 304 269 199 34 0 0 22 44 3
0 0 0 0 0 0 0 0 6 11 0 0 3 16 70 240 718 720 588 185 165 299 109 155 495 775 593 615 993 899 732 912 994 1198 1284 1346 1121 966 734 475 301 169 87 0 0 0 5 15 7
0 0 0 0 0 0 0 0 9 20 15 18 0 46 55 684 430 312 88 33 13 20 89 16 0 371 630 623 557 443 451 721 862 1155 1261 1034 928 806 684 470 275 92 4 0 0 0 0 9 12
0 0 0 0 0 0 0 0 0 43 64 0 0 180 0 75 306 93 54 47 41 13 1 0 0 16 275 393 348 242 220 609 710 916 894 842 839 657 506 253 69 0 0 0 0 0 14 31 11
0 0 0 0 0 0 0 0 17 18 10 0 78 5 115 662 187 95 5 0 0 1 1 0 0 0 131 150 169 208 243 565 609 624 449 579 677 440 104 8 37 35 0 0 0 0 0 0 1
0 0 0 0 0 0 0 0 17 33 22 21 25 76 0 414 360 190 106 1 0 0 0 5 67 47 0 124 135 82 113 255 369 465 636 616 496 173 0 3 65 51 0 0 0 0 0 0 0
0 0 0 0 0 0 0 7 5 0 62 239 204 361 0 623 293 201 57 3 0 0 0 86 6 6 0 1 39 25 86 153 35 124 253 238 270 72 0 0 0 0 0 0 0 0 0 0 0
0 0 0 0 0 0 0 2 18 0 56 574 723 134 601 553 498 248 52 2 0 2 2 2 0 10 1 97 73 14 47 19 17 14 15 73 54 13 0 0 0 0 0 0 0 0 0 0 0
0 0 0 0 0 0 0 0 0 69 443 545 557 522 390 216 86 13 15 2 4 3 1 1 1 2 1 0 0 0 0 11 8 7 7 8 1 1 4 0 0 0 0 0 0 0 0 0 0
0 0 0 0 0 0 0 0 0 0 300 433 284 177 129 17 1 5 14 6 2 1 0 0 0 2 6 9 0 0 0 0 0 6 4 4 1 4 5 0 0 0 0 0 0 0 0 0 0
0 0 0 0 0 0 0 0 0 0 362 367 153 45 43 0 4 11 7 5 1 2 1 0 0 0 0 0 0 0 0 0 2 1 1 5 0 4 3 0 0 0 0 0 0 0 0 0 0
0 0 0 0 0 0 0 0 0 0 392 365 98 6 0 4 3 2 2 3 2 2 1 0 0 0 0 0 0 0 0 0 18 27 13 2 2 0 0 0 0 0 0 0 0 0 0 0 0
0 0 0 0 0 0 0 0 0 0 50 169 52 6 0 0 0 4 3 2 2 2 3 2 0 0 0 0 0 0 0 4 23 37 22 39 32 14 2 0 0 0 0 0 0 0 0 0 0
0 0 0 0 0 0 0 0 0 0 0 92 35 0 0 0 0 4 3 3 3 4 3 6 3 0 0 0 0 0 0 0 0 7 26 62 76 54 0 0 0 0 0 0 0 0 0 0 0
0 0 0 0 0 0 0 0 0 0 0 0 4 0 0 0 0 2 5 3 2 1 1 2 2 0 0 0 0 0 0 0 0 0 20 14 35 75 18 1 0 0 0 0 0 0 0 0 0
0 0 0 0 0 0 0 0 0 0 0 0 0 0 0 0 0 4 9 4 2 1 1 1 0 0 0 0 0 0 0 0 0 11 0 13 8 42 25 0 0 0 0 0 0 0 0 0 0
0 0 0 0 0 0 0 0 0 0 0 0 0 0 0 0 0 3 5 7 3 1 1 0 0 0 0 0 0 0 0 0 0 3 6 6 20 2 18 4 0 0 0 0 0 0 0 0 0
0 0 0 0 0 0 0 0 0 0 0 0 0 0 0 0 0 1 0 0 1 1 0 0 0 0 0 0 0 0 0 0 0 0 2 1 0 0 2 1 0 0 0 0 0 0 0 0 0
0 0 0 0 0 0 0 0 0 0 0 0 0 0 0 0 0 0 0 0 0 0 0 0 0 0 0 0 0 0 0 0 0 0 0 0 0 0 0 0 0 0 0 0 0 0 0 0 0
0 0 0 0 0 0 0 0 0 0 0 0 0 0 0 0 0 0 0 0 0 0 0 0 0 0 0 0 0 0 0 0 0 0 0 0 0 0 0 0 0 0 0 0 0 0 0 0 0
0 0 0 0 0 0 0 0 0 0 0 0 0 0 0 0 0 0 0 0 0 0 0 0 0 0 0 0 0 0 0 0 0 0 0 0 0 0 0 0 0 0 0 0 0 0 0 0 0
0 0 0 0 0 0 0 0 0 0 0 0 0 0 0 0 0 0 0 0 0 0 0 0 0 0 0 0 0 0 0 0 0 0 0 0 0 0 0 0 0 0 0 0 0 0 0 0 0
0 0 0 0 0 0 0 0 0 0 0 0 0 0 0 0 0 0 0 0 0 0 0 0 0 0 0 0 0 0 0 0 0 0 0 0 0 0 0 0 0 0 0 0 0 0 0 0 0
0 0 0 0 0 3 0 0 0 0 0 0 0 0 0 0 0 0 0 0 0 0 0 0 0 0 0 0 0 0 0 0 0 0 0 0 0 0 0 0 0 0 0 0 0 0 0 0 0
0 0 0 0 0 0 0 0 0 0 0 0 0 0 0 0 0 0 0 0 0 0 0 0 0 0 0 0 0 0 0 0 0 0 0 0 0 0 0 0 0 0 0 0 0 0 0 0 0
0 0 0 0 0 0 0 0 0 0 0 0 0 0 0 0 0 0 0 0 0 0 0 0 0 0 0 0 0 0 0 0 0 0 0 0 0 0 0 0 0 0 0 0 0 0 0 0 0